[ hide orbit diagram ]
For accurate long-term ephemerides, please instead use our Horizons system.This orbit viewer was implemented using two-body methods, and hence should not be used for determining accurate long-term trajectories (over several years or decades) or planetary encounter circumstances.
Orbital Elements at Epoch 2459000.5 (2020-May-31.0) TDB
Reference: JPL 4 (heliocentric ecliptic J2000)
Element | Value | Uncertainty (1-sigma) | Units |
e | .2092059079608463 | 8.1146e-08 | |
a | 3.060900219161322 | 6.0717e-08 | au |
q | 2.420541809634124 | 2.3063e-07 | au |
i | 14.64062630359843 | 1.233e-05 | deg |
node | 310.056081117047 | 3.1711e-05 | deg |
peri | 316.0634031781001 | 4.7638e-05 | deg |
M | 130.8317856379692 | 4.1246e-05 | deg |
tp | 2458289.641839092533 (2018-Jun-20.14183909) | 0.00021038 | TDB |
period | 1956.015020958483 5.36 | 5.82e-05 1.593e-07 | d yr |
n | .1840476663740514 | 5.4762e-09 | deg/d |
Q | 3.70125862868852 | 7.3419e-08 | au |
|
| | Orbit Determination Parameters
Additional Information
|
[ show covariance matrix ]
Physical Parameter Table
Parameter |
Symbol |
Value |
Units |
Sigma |
Reference |
Notes |
absolute magnitude |
H |
16.3 |
|
n/a |
MPO448190 |
|
|
523263 (2017 AV23) Discovered 2006-Jan-25 by Spacewatch at Kitt Peak |
Reference: | Last Updated: 2018-05-31 |
|
[ show close-approach data ]
|